GW4305 Weather Reports


Display with metric or nautical units.
time (UTC)temp
F
wind
direction
speed
MPH
gust
MPH
rain 1hr
in
rain 24hr
in
rain mn
in
humidity
%
barometer
mb
20260505090009 39 265 0.0 0.0 0.00 0.00 0.00 64 1019.2
20260505085507 39 256 0.0 0.0 0.00 0.00 0.00 64 1019.4
20260505085005 39 283 0.0 0.0 0.00 0.00 0.00 64 1019.2
20260505084503 39 284 0.0 0.0 0.00 0.00 0.00 64 1019.4
20260505084001 39 286 0.0 1.0 0.00 0.00 0.00 64 1019.3
20260505083458 40 109 0.0 2.0 0.00 0.00 0.00 64 1019.3
20260505082954 39 291 0.0 2.0 0.00 0.00 0.00 64 1019.4
20260505082450 40 76 0.0 3.0 0.00 0.00 0.00 63 1019.4
20260505081947 40 148 1.0 2.0 0.00 0.00 0.00 63 1019.4
20260505081444 40 60 0.0 2.0 0.00 0.00 0.00 62 1019.3
20260505080940 40 119 1.0 2.0 0.00 0.00 0.00 61 1019.4
20260505080436 40 59 2.0 3.0 0.00 0.00 0.00 61 1019.3
20260505075932 40 252 0.0 0.0 0.00 0.00 0.00 61 1019.3
20260505075429 40 244 0.0 1.0 0.00 0.00 0.00 60 1019.3
20260505074926 40 79 3.0 3.0 0.00 0.00 0.00 59 1019.3
20260505074424 40 96 3.0 5.0 0.00 0.00 0.00 59 1019.4
20260505073920 40 69 3.0 5.0 0.00 0.00 0.00 58 1019.4
20260505073418 41 84 3.0 6.0 0.00 0.00 0.00 57 1019.5
20260505072915 41 120 1.0 2.0 0.00 0.00 0.00 56 1019.4
20260505072411 41 82 3.0 7.0 0.00 0.00 0.00 55 1019.5
20260505071908 41 92 1.0 3.0 0.00 0.00 0.00 53 1019.3
20260505071404 41 91 3.0 3.0 0.00 0.00 0.00 52 1019.1
20260505070902 42 119 3.0 5.0 0.00 0.00 0.00 52 1019.5
20260505070358 42 92 2.0 6.0 0.00 0.00 0.00 51 1019.4
20260505065854 42 95 3.0 6.0 0.00 0.00 0.00 50 1019.2
20260505065351 42 228 2.0 5.0 0.00 0.00 0.00 50 1019.2
20260505064848 42 135 1.0 7.0 0.00 0.00 0.00 49 1019.3
20260505064345 42 235 1.0 8.0 0.00 0.00 0.00 48 1019.2
20260505063843 43 71 5.0 8.0 0.00 0.00 0.00 47 1019.5
20260505063338 43 97 2.0 3.0 0.00 0.00 0.00 46 1019.0
20260505062835 43 72 3.0 3.0 0.00 0.00 0.00 45 1019.3
20260505062333 43 118 2.0 2.0 0.00 0.00 0.00 44 1019.2
20260505061829 43 86 1.0 5.0 0.00 0.00 0.00 44 1019.1
20260505061328 43 168 0.0 3.0 0.00 0.00 0.00 43 1019.2
20260505060825 44 117 1.0 2.0 0.00 0.00 0.00 43 1019.0
20260505060321 44 93 1.0 5.0 0.00 0.00 0.00 42 1018.8
20260505055817 44 10 3.0 5.0 0.00 0.00 0.00 40 1019.1
20260505055313 44 146 1.0 2.0 0.00 0.00 0.00 40 1019.1
20260505054811 45 250 0.0 2.0 0.00 0.00 0.00 38 1018.7
20260505054308 45 241 1.0 5.0 0.00 0.00 0.00 37 1018.6
20260505053806 46 106 2.0 2.0 0.00 0.00 0.00 36 1018.7
20260505053303 46 154 1.0 2.0 0.00 0.00 0.00 35 1018.7
20260505052800 46 294 0.0 1.0 0.00 0.00 0.00 35 1018.6
20260505052257 46 283 0.0 2.0 0.00 0.00 0.00 36 1018.3
20260505051754 46 95 0.0 1.0 0.00 0.00 0.00 36 1018.4
20260505051252 47 33 1.0 1.0 0.00 0.00 0.00 36 1018.5
20260505050749 47 278 0.0 2.0 0.00 0.00 0.00 36 1018.5
20260505050248 46 2 1.0 2.0 0.00 0.00 0.00 36 1018.4
20260505041717 47 126 1.0 3.0 0.00 0.00 0.00 34 1018.1
20260505041215 48 274 0.0 2.0 0.00 0.00 0.00 34 1018.1
20260505040712 48 29 0.0 3.0 0.00 0.00 0.00 34 1018.1
20260505040209 48 205 0.0 2.0 0.00 0.00 0.00 34 1018.1
20260505035706 48 143 0.0 2.0 0.00 0.00 0.00 34 1018.0
20260505035202 48 5 1.0 2.0 0.00 0.00 0.00 34 1018.0
20260505034658 48 276 0.0 1.0 0.00 0.00 0.00 34 1017.8
20260505034156 48 48 0.0 1.0 0.00 0.00 0.00 34 1017.7
20260505033652 48 348 1.0 2.0 0.00 0.00 0.00 34 1017.6
20260505033150 48 202 0.0 6.0 0.00 0.00 0.00 33 1017.7
20260505032648 49 116 1.0 3.0 0.00 0.00 0.00 33 1017.7
20260505032144 49 76 1.0 2.0 0.00 0.00 0.00 33 1017.4
20260505031641 49 354 1.0 3.0 0.00 0.00 0.00 33 1017.5
20260505031137 49 322 0.0 2.0 0.00 0.00 0.00 33 1017.4
20260505030635 49 209 1.0 7.0 0.00 0.00 0.00 32 1017.4
20260505030130 49 358 1.0 5.0 0.00 0.00 0.00 32 1017.1
20260505025627 49 290 0.0 2.0 0.00 0.00 0.00 32 1017.1
20260505025125 49 266 1.0 3.0 0.00 0.00 0.00 32 1017.2
20260505024622 50 166 0.0 1.0 0.00 0.00 0.00 32 1016.8
20260505024119 50 334 1.0 3.0 0.00 0.00 0.00 31 1017.1
20260505023617 50 101 2.0 3.0 0.00 0.00 0.00 31 1017.0
20260505023114 50 165 2.0 3.0 0.00 0.00 0.00 31 1016.8
20260505022611 50 111 2.0 3.0 0.00 0.00 0.00 31 1016.6
20260505022108 50 202 1.0 2.0 0.00 0.00 0.00 31 1016.8
20260505021605 50 286 1.0 3.0 0.00 0.00 0.00 30 1016.8
20260505021102 50 282 1.0 3.0 0.00 0.00 0.00 31 1016.6
20260505020602 51 70 3.0 7.0 0.00 0.00 0.00 29 1016.6
20260505020059 51 132 1.0 3.0 0.00 0.00 0.00 29 1016.4
20260505015556 51 333 3.0 5.0 0.00 0.00 0.00 28 1016.5
20260505015053 51 170 0.0 5.0 0.00 0.00 0.00 29 1016.5
20260505014549 51 55 1.0 3.0 0.00 0.00 0.00 29 1016.4
20260505014046 51 130 2.0 5.0 0.00 0.00 0.00 28 1016.4
20260505013543 52 218 0.0 5.0 0.00 0.00 0.00 28 1016.3
20260505013041 52 7 1.0 6.0 0.00 0.00 0.00 28 1016.4
20260505012539 52 237 1.0 2.0 0.00 0.00 0.00 28 1016.2
20260505012036 53 270 0.0 3.0 0.00 0.00 0.00 27 1016.1
20260505011531 53 10 1.0 2.0 0.00 0.00 0.00 27 1016.0
20260505011029 53 247 0.0 5.0 0.00 0.00 0.00 26 1016.1
20260505010524 53 245 3.0 8.0 0.00 0.00 0.00 26 1016.0
20260505010021 53 279 0.0 2.0 0.00 0.00 0.00 27 1015.8
20260505005517 53 281 1.0 2.0 0.00 0.00 0.00 26 1016.1
20260505005015 53 77 1.0 6.0 0.00 0.00 0.00 26 1016.0
20260505004512 53 141 3.0 5.0 0.00 0.00 0.00 27 1016.2
20260505004008 54 1 0.0 3.0 0.00 0.00 0.00 26 1016.1
20260505003505 54 72 1.0 6.0 0.00 0.00 0.00 26 1016.2
20260505003003 54 254 2.0 5.0 0.00 0.00 0.00 26 1016.2
20260505002458 54 250 2.0 2.0 0.00 0.00 0.00 26 1016.1
20260505001956 54 276 2.0 2.0 0.00 0.00 0.00 26 1016.2
20260505001454 55 349 0.0 3.0 0.00 0.00 0.00 26 1016.3
20260505000950 55 29 1.0 3.0 0.00 0.00 0.00 27 1016.2
20260505000448 54 268 1.0 7.0 0.00 0.00 0.00 26 1016.2
20260504235945 55 238 2.0 5.0 0.00 0.00 0.00 26 1016.1
20260504235442 55 180 0.0 8.0 0.00 0.00 0.00 27 1016.1
20260504234939 55 229 1.0 5.0 0.00 0.00 0.00 26 1016.2
20260504234436 56 357 3.0 6.0 0.00 0.00 0.00 25 1016.0
20260504233932 56 231 1.0 3.0 0.00 0.00 0.00 26 1016.0
20260504233428 56 71 1.0 5.0 0.00 0.00 0.00 25 1016.1
20260504232925 56 230 0.0 1.0 0.00 0.00 0.00 25 1016.0
20260504232422 56 285 2.0 3.0 0.00 0.00 0.00 26 1016.1
20260504231919 56 256 0.0 1.0 0.00 0.00 0.00 24 1016.2
20260504231415 56 205 2.0 7.0 0.00 0.00 0.00 25 1016.4
20260504230912 56 243 4.0 6.0 0.00 0.00 0.00 26 1016.2
20260504230409 56 359 2.0 3.0 0.00 0.00 0.00 25 1016.1
20260504225908 56 281 1.0 1.0 0.00 0.00 0.00 25 1016.3
20260504225404 56 278 2.0 3.0 0.00 0.00 0.00 25 1016.2
20260504224902 57 227 1.0 5.0 0.00 0.00 0.00 25 1016.2
20260504224358 58 252 1.0 2.0 0.00 0.00 0.00 24 1015.8
20260504223855 59 36 3.0 6.0 0.00 0.00 0.00 22 1016.1
20260504223350 56 289 1.0 5.0 0.00 0.00 0.00 25 1016.0
20260504222847 56 259 1.0 5.0 0.00 0.00 0.00 24 1016.1
20260504222344 56 265 1.0 1.0 0.00 0.00 0.00 25 1016.2
20260504221843 57 258 0.0 6.0 0.00 0.00 0.00 24 1016.2
20260504221339 55 278 0.0 2.0 0.00 0.00 0.00 25 1016.3
20260504220836 56 250 1.0 6.0 0.00 0.00 0.00 25 1016.4
20260504220332 56 263 0.0 6.0 0.00 0.00 0.00 24 1016.4
20260504215830 56 75 2.0 3.0 0.00 0.00 0.00 24 1016.3
20260504215326 56 296 0.0 3.0 0.00 0.00 0.00 23 1016.4
20260504214822 57 291 1.0 2.0 0.00 0.00 0.00 23 1016.3
20260504214320 60 259 2.0 3.0 0.00 0.00 0.00 23 1016.4
20260504213816 57 334 4.0 9.0 0.00 0.00 0.00 22 1016.5
20260504213312 59 180 2.0 2.0 0.00 0.00 0.00 22 1016.4
20260504212809 59 273 1.0 6.0 0.00 0.00 0.00 22 1016.4
20260504212306 59 241 1.0 5.0 0.00 0.00 0.00 23 1016.5
20260504211803 59 255 2.0 5.0 0.00 0.00 0.00 23 1016.7
20260504211259 58 251 2.0 3.0 0.00 0.00 0.00 23 1016.6
20260504210757 59 332 1.0 6.0 0.00 0.00 0.00 22 1016.6
20260504210254 60 348 2.0 7.0 0.00 0.00 0.00 23 1016.7
20260504205751 59 251 1.0 3.0 0.00 0.00 0.00 24 1016.8
20260504205249 56 242 1.0 2.0 0.00 0.00 0.00 25 1016.7
20260504204747 55 212 1.0 5.0 0.00 0.00 0.00 26 1016.8
20260504204244 55 258 2.0 5.0 0.00 0.00 0.00 24 1016.6
20260504203744 55 256 1.0 2.0 0.00 0.00 0.00 25 1017.0
20260504203241 55 172 2.0 3.0 0.00 0.00 0.00 25 1016.7
20260504202740 55 251 0.0 2.0 0.00 0.00 0.00 25 1016.8
20260504202238 54 229 3.0 5.0 0.00 0.00 0.00 24 1016.8
20260504201735 56 206 3.0 6.0 0.00 0.00 0.00 25 1016.8
20260504201232 55 319 5.0 9.0 0.00 0.00 0.00 26 1016.7
20260504200730 55 252 3.0 6.0 0.00 0.00 0.00 24 1016.7
20260504200225 58 351 1.0 2.0 0.00 0.00 0.00 26 1017.0
20260504195722 58 221 2.0 9.0 0.00 0.00 0.00 27 1017.2
20260504195218 57 245 1.0 5.0 0.00 0.00 0.00 26 1016.7
20260504194715 57 264 1.0 2.0 0.00 0.00 0.00 26 1016.8
20260504194211 57 321 1.0 6.0 0.00 0.00 0.00 25 1017.0
20260504193708 56 260 1.0 3.0 0.00 0.00 0.00 27 1017.0
20260504193206 57 307 2.0 5.0 0.00 0.00 0.00 29 1016.8
20260504192704 55 220 2.0 3.0 0.00 0.00 0.00 28 1017.0
20260504192201 56 73 1.0 7.0 0.00 0.00 0.00 28 1017.2
20260504191700 56 255 1.0 3.0 0.00 0.00 0.00 29 1016.7
20260504191156 56 284 1.0 2.0 0.00 0.00 0.00 28 1016.8
20260504190652 54 224 1.0 5.0 0.00 0.00 0.00 28 1017.1
20260504190149 55 265 1.0 3.0 0.00 0.00 0.00 29 1017.1
20260504185645 56 5 5.0 8.0 0.00 0.00 0.00 26 1016.7
20260504185142 56 211 2.0 5.0 0.00 0.00 0.00 27 1017.1
20260504184638 55 60 3.0 6.0 0.00 0.00 0.00 30 1016.8
20260504184133 55 187 1.0 5.0 0.00 0.00 0.00 29 1017.3
20260504183630 54 264 1.0 3.0 0.00 0.00 0.00 30 1017.1
20260504183127 56 242 0.0 3.0 0.00 0.00 0.00 28 1017.3
20260504182625 53 274 2.0 5.0 0.00 0.00 0.00 29 1017.3
20260504182122 55 10 2.0 5.0 0.00 0.00 0.00 28 1017.5
20260504181620 56 322 3.0 5.0 0.00 0.00 0.00 28 1017.1
20260504181117 56 103 2.0 6.0 0.00 0.00 0.00 30 1017.2
20260504180616 55 224 2.0 3.0 0.00 0.00 0.00 35 1017.5
20260504180115 55 212 2.0 6.0 0.00 0.00 0.00 32 1017.5
20260504175611 54 345 5.0 9.0 0.00 0.00 0.00 35 1017.3
20260504175108 52 255 1.0 5.0 0.00 0.00 0.00 39 1017.3
20260504174606 52 24 1.0 6.0 0.00 0.00 0.00 38 1017.5
20260504174102 52 267 0.0 2.0 0.00 0.00 0.00 38 1017.5
20260504173559 52 62 2.0 5.0 0.00 0.00 0.00 38 1017.6
20260504173057 53 209 2.0 3.0 0.00 0.00 0.00 37 1017.5
20260504172553 52 259 2.0 2.0 0.00 0.00 0.00 38 1017.5
20260504172050 52 40 2.0 5.0 0.00 0.00 0.00 40 1017.5
20260504171546 51 256 2.0 6.0 0.00 0.00 0.00 39 1017.4
20260504171044 51 239 1.0 2.0 0.00 0.00 0.00 42 1017.6
20260504170539 51 21 1.0 5.0 0.00 0.00 0.00 42 1017.7
20260504150923 44 270 0.0 0.0 0.00 0.00 0.00 53 1017.7
20260504150420 44 268 0.0 1.0 0.00 0.00 0.00 53 1017.8
20260504140846 43 264 0.0 1.0 0.00 0.00 0.00 55 1017.5
20260504140342 43 270 0.0 1.0 0.00 0.00 0.00 55 1017.6
20260504130811 41 256 0.0 1.0 0.00 0.00 0.00 62 1017.1
20260504130308 41 266 0.0 0.0 0.00 0.00 0.00 64 1017.0
20260504120231 41 272 0.0 0.0 0.00 0.00 0.00 68 1017.0
20260504110658 41 270 0.0 0.0 0.00 0.00 0.00 66 1016.8
20260504110154 41 279 0.0 0.0 0.00 0.00 0.00 66 1017.0
20260504100119 44 294 0.0 0.0 0.00 0.00 0.00 80 1016.4